TimeCDT,TemperatureF,Dew PointF,Humidity,Sea Level PressureIn,VisibilityMPH,Wind Direction,Wind SpeedMPH,Gust SpeedMPH,PrecipitationIn,Events,Conditions,WindDirDegrees,DateUTC
12:00 AM,-14.8,-23.8,64,30.25,1.0,SE,3.5,-,N/A,,Ice Crystals,140,2013-10-11 05:00:00
12:50 AM,-9999,-9999,N/A,-9999,1.5,Calm,Calm,-,N/A,,Ice Crystals,0,2013-10-11 05:50:00
1:00 AM,-14,-22,52,30.26,1,Calm,Calm,,,Snow,Snow,,2013-10-11 06:00:00
1:00 AM,-14.8,-22.0,70,30.26,1.5,Calm,Calm,-,N/A,,Ice Crystals,0,2013-10-11 06:00:00
1:38 AM,-9999,-9999,N/A,-9999,0.8,Calm,Calm,-,N/A,,Ice Crystals,0,2013-10-11 06:38:00
2:00 AM,-11.2,-20.2,64,30.27,0.5,Calm,Calm,-,N/A,,Ice Crystals,0,2013-10-11 07:00:00
2:32 AM,-9999,-9999,N/A,-9999,1.0,Calm,Calm,-,N/A,,Ice Crystals,0,2013-10-11 07:32:00
3:00 AM,-9.4,-18.4,65,30.29,1.5,Calm,Calm,-,N/A,,Ice Crystals,0,2013-10-11 08:00:00
4:00 AM,-9.4,-16.6,71,30.30,2.0,Calm,Calm,-,N/A,,Overcast,0,2013-10-11 09:00:00
5:00 AM,-5.8,-13.0,71,30.31,0.5,Calm,Calm,-,N/A,Fog,Light Freezing Fog,0,2013-10-11 10:00:00
5:37 AM,-9999,-9999,N/A,-9999,1.0,Calm,Calm,-,N/A,,Overcast,0,2013-10-11 10:37:00
6:00 AM,-5.8,-13.0,71,30.32,1.0,Calm,Calm,-,N/A,,Overcast,0,2013-10-11 11:00:00
6:44 AM,-9999,-9999,N/A,-9999,1.5,Calm,Calm,-,N/A,,Scattered Clouds,0,2013-10-11 11:44:00
7:00 AM,-6,-13,60,30.32,1,Calm,Calm,,,Snow,Light Snow,,2013-10-11 12:00:00
7:00 AM,-5.8,-13.0,71,30.32,1.5,Calm,Calm,-,N/A,Snow,Light Snow,0,2013-10-11 12:00:00
7:20 AM,-9999,-9999,N/A,-9999,1.5,Calm,Calm,-,N/A,,Overcast,0,2013-10-11 12:20:00
8:00 AM,-4.0,-11.2,71,30.32,1.5,Calm,Calm,-,N/A,,Overcast,0,2013-10-11 13:00:00
8:23 AM,-9999,-9999,N/A,-9999,0.5,Calm,Calm,-,N/A,Fog,Light Freezing Fog,0,2013-10-11 13:23:00
8:47 AM,-9999,-9999,N/A,-9999,7.0,SW,2.3,-,N/A,,Partly Cloudy,230,2013-10-11 13:47:00
9:00 AM,-7.6,-14.8,71,30.33,7.0,Calm,Calm,-,N/A,,Partly Cloudy,0,2013-10-11 14:00:00
10:00 AM,-7.6,-14.8,71,30.35,7.0,Calm,Calm,-,N/A,,Mostly Cloudy,0,2013-10-11 15:00:00
10:46 AM,-9999,-9999,N/A,-9999,1.0,Calm,Calm,-,N/A,,Scattered Clouds,0,2013-10-11 15:46:00
11:00 AM,-7.6,-14.8,71,30.35,0.5,Calm,Calm,-,N/A,Fog,Light Freezing Fog,0,2013-10-11 16:00:00
11:16 AM,-9999,-9999,N/A,-9999,0.2,Calm,Calm,-,N/A,Fog,Light Freezing Fog,0,2013-10-11 16:16:00
11:32 AM,-9999,-9999,N/A,-9999,0.5,Calm,Calm,-,N/A,Fog,Light Freezing Fog,0,2013-10-11 16:32:00
12:00 PM,-11.2,-18.4,70,30.35,1.0,Calm,Calm,-,N/A,,Mostly Cloudy,0,2013-10-11 17:00:00
1:00 PM,-10,-18,53,30.35,1,Calm,Calm,,,,Mist,,2013-10-11 18:00:00
1:00 PM,-9.4,-18.4,65,30.35,1.0,Calm,Calm,-,N/A,,Mostly Cloudy,0,2013-10-11 18:00:00
2:00 PM,-11.2,-20.2,64,30.36,1.0,Calm,Calm,-,N/A,,Mostly Cloudy,0,2013-10-11 19:00:00
2:38 PM,-9999,-9999,N/A,-9999,0.2,Calm,Calm,-,N/A,Fog,Light Freezing Fog,0,2013-10-11 19:38:00
3:00 PM,-9.4,-16.6,71,30.36,0.1,Calm,Calm,-,N/A,Fog,Light Freezing Fog,0,2013-10-11 20:00:00
4:00 PM,-11.2,-20.2,64,30.36,0.5,Calm,Calm,-,N/A,Fog,Light Freezing Fog,0,2013-10-11 21:00:00
4:53 PM,-9999,-9999,N/A,-9999,0.1,Calm,Calm,-,N/A,Fog,Light Freezing Fog,0,2013-10-11 21:53:00
5:00 PM,-9.4,-16.6,71,30.37,0.1,Calm,Calm,-,N/A,Fog,Light Freezing Fog,0,2013-10-11 22:00:00
6:00 PM,-11.2,-18.4,70,30.36,0.2,Calm,Calm,-,N/A,Fog,Light Freezing Fog,0,2013-10-11 23:00:00
6:21 PM,-9999,-9999,N/A,-9999,0.1,Calm,Calm,-,N/A,,Ice Crystals,0,2013-10-11 23:21:00
7:00 PM,-12,-19,55,30.35,0,Calm,Calm,,,Snow,Snow,,2013-10-12 00:00:00
7:00 PM,-11.2,-20.2,64,30.35,0.1,Calm,Calm,-,N/A,,Ice Crystals,0,2013-10-12 00:00:00
8:00 PM,-13.0,-22.0,64,30.36,0.2,Calm,Calm,-,N/A,,Ice Crystals,0,2013-10-12 01:00:00
8:40 PM,-9999,-9999,N/A,-9999,0.5,Calm,Calm,-,N/A,,Ice Crystals,0,2013-10-12 01:40:00
9:00 PM,-16.6,-23.8,70,30.35,0.6,Calm,Calm,-,N/A,,Ice Crystals,0,2013-10-12 02:00:00
9:25 PM,-9999,-9999,N/A,-9999,2.0,Calm,Calm,-,N/A,,Ice Crystals,0,2013-10-12 02:25:00
10:00 PM,-18.4,-27.4,63,30.34,5.0,Calm,Calm,-,N/A,,Ice Crystals,0,2013-10-12 03:00:00
10:19 PM,-9999,-9999,N/A,-9999,1.0,Calm,Calm,-,N/A,,Ice Crystals,0,2013-10-12 03:19:00
11:00 PM,-18.4,-27.4,63,30.34,1.5,Calm,Calm,-,N/A,,Ice Crystals,0,2013-10-12 04:00:00